| Date | Time | Temp. (oF) | Dew Point (oF) | Rel. Hum. (%) | Press. (in.) | Wind Dir. (deg.) | Wind Speed (mph) | Hourly Rainfall (i n.) |
|
|---|---|---|---|---|---|---|---|---|---|
| 1 | 05/08 | 24:00 | 60 | 57 | 90 | 30.07 | 60 | 0 | 0.00 |
| 2 | 05/07 | 23:00 | 60 | 56 | 88 | 30.08 | 50 | 1 | 0.00 |
| 3 | 05/07 | 22:00 | 61 | 57 | 88 | 30.09 | 250 | 0 | 0.00 |
| 4 | 05/07 | 21:00 | 62 | 58 | 87 | 30.07 | 130 | 0 | 0.00 |
| 5 | 05/07 | 20:00 | 63 | 58 | 85 | 30.07 | 130 | 1 | 0.00 |
| 6 | 05/07 | 19:00 | 64 | 59 | 85 | 30.06 | 130 | 0 | 0.00 |
| 7 | 05/07 | 18:00 | 65 | 59 | 83 | 30.03 | 130 | 2 | 0.00 |
| 8 | 05/07 | 17:00 | 66 | 59 | 81 | 30.00 | 90 | 2 | 0.00 |
| 9 | 05/07 | 16:00 | 66 | 60 | 82 | 30.03 | 130 | 1 | 0.00 |
| 10 | 05/07 | 15:00 | 65 | 60 | 84 | 30.05 | 130 | 0 | 0.00 |
| 11 | 05/07 | 14:00 | 63 | 57 | 83 | 30.07 | 130 | 0 | 0.00 |
| 12 | 05/07 | 13:00 | 62 | 57 | 86 | 30.12 | 130 | 0 | 0.00 |
| 13 | 05/07 | 12:00 | 60 | 56 | 88 | 30.12 | 130 | 0 | 0.01 |
| 14 | 05/07 | 11:00 | 59 | 55 | 88 | 30.12 | 130 | 1 | 0.00 |
| 15 | 05/07 | 10:00 | 59 | 55 | 89 | 30.06 | 130 | 0 | 0.00 |
| 16 | 05/07 | 09:00 | 57 | 54 | 90 | 30.05 | 130 | 1 | 0.00 |
| 17 | 05/07 | 08:00 | 57 | 54 | 90 | 30.06 | 130 | 2 | 0.00 |
| 18 | 05/07 | 07:00 | 56 | 53 | 90 | 30.11 | 130 | 0 | 0.00 |
| 19 | 05/07 | 06:00 | 56 | 53 | 90 | 30.07 | 130 | 0 | 0.01 |
| 20 | 05/07 | 05:00 | 56 | 52 | 89 | 30.06 | 130 | 0 | 0.00 |
| 21 | 05/07 | 04:00 | 57 | 53 | 87 | 30.06 | 130 | 0 | 0.00 |
| 22 | 05/07 | 03:00 | 57 | 53 | 87 | 30.07 | 140 | 0 | 0.00 |
| 23 | 05/07 | 02:00 | 57 | 52 | 86 | 30.08 | 150 | 6 | 0.00 |
| 24 | 05/07 | 01:00 | 58 | 53 | 85 | 30.08 | 130 | 2 | 0.00 |